TRANSIT 5B-1 DEB, 2097

Orbit data source: Space-Track

TRANSIT 5B-1 DEB, 2097 is space debris in LEO originally from a launch on Sat, 28 Sep 1963 UTC launched from the Air Force Western Test Range (AFWTR). Debris objects in space refer to the collection of defunct objects orbiting the Earth. Examples of debris include non-operational satellites, rocket bodies, and fragments generated from explosions, collisions, or faulty payload assembly.

Loading next visibility...
Identifier
2097, 1963-038G
Orbit
LEO
Country
Flag of USUS
Related business
Manufacturer
Unknown
Mission
Spacecraft
Bus & Motor
Unknown
Mass
Unknown
Launch date (UTC)
1963-09-28 (62 years ago)
Launch vehicle
Unknown
Launch site
Air Force Western Test Range (AFWTR)
Object type
Payload
Rocket body
Debris
Shape & HBR
Unknown shape, 0.1 m
Radar Cross Section
Small (<0.1 m²)

Expand to show TLE details & history
Last TLE update: 1 day ago

TLE from 1 day ago
0 TRANSIT 5B-1 DEB
1  2097U 63038G   26035.28003229  .00000716  00000-0  85124-3 0  9997
2  2097  90.0040 338.1740 0037315 229.2219 285.9719 13.66302550 81477
Epoch: 2026-02-04T06:43Z
TLE epoch observation values (Epoch: 2026-02-04T06:43:14.789Z)
Latitude
25.24516°
Longitude
-77.08463°
Altitude
1,008.512 km
Speed
7.353 km/s
True Right ascension
10h 32m 42s
True Declination
25° 07' 02"
Sunlit
Object was in full shadow at epoch
Visualization orbit readout
Latitude
Unknown
Longitude
Unknown
Altitude
Unknown
Speed
Unknown
Apparent Right ascension
Unknown
Apparent Declination
Unknown
Sunlit
N/A
Visualization observer readout
Local Sidereal Time
08:58:08
Azimuth
Unknown
Elevation
Unknown
Doppler factor
Unknown
Orbital elements
Apogee altitude
1,037.47 km
Perigee altitude
982.333 km
Semi-major axis
7,388.038 km
Eccentricity
0.00373
Inclination
90.004°
RAAN
338.174°
Arg. of periapsis
229.2219°
True anomaly
285.56028°
Mean anomaly
285.9719°
Eccentric anomaly
285.76614°
Mean motion
3.41782 °/min
Orbital period
105.33 mins
BSTAR
0.00085124
Loading maneuver chart data...
Computing Atmospheric mass density...

Documentation

Showing up to 5 results
|